This demonstration page uses our WeatherBlox Daily Observations layout. Learn more.

Left ArrowRight Arrow

30.21309, -93.2044

Hourly Observations for August 10, 2022

Temp ( °F °C ) Dew Point ( °F °C ) Humidity (%) Winds ( mph kmh ) Pressure ( in mb ) Visibility ( mi km ) Precip ( " mm )
12:15 am 00:15 Clear 76 24.2 72 22.3 89 89 S 3 6 30.04 1017 10 16 0.00 0.00
12:35 am 00:35 Clear 76 24.6 72 22.1 86 86 Calm 30.04 1017 10 16 0.00 0.00
12:55 am 00:55 Clear 76 24.5 72 22.2 87 87 E 3 6 30.04 1017 10 16 0.00 0.00
1:15 am 01:15 Clear 75 23.8 72 22.2 91 91 Calm 30.04 1017 10 16 0.00 0.00
1:35 am 01:35 Clear 76 24.2 72 22.2 89 89 Calm 30.04 1017 10 16 0.00 0.00
1:55 am 01:55 Clear 76 24.3 72 22.2 88 88 ESE 3 6 30.05 1018 10 16 0.00 0.00
2:15 am 02:15 Clear 76 24.2 72 22.3 89 89 NE 3 6 30.05 1018 10 16 0.00 0.00
2:35 am 02:35 Partly Cloudy 76 24.5 72 22.4 88 88 ENE 3 6 30.06 1018 10 16 0.00 0.00
2:55 am 02:55 Partly Cloudy 76 24.2 72 22.3 89 89 ENE 5 7 30.05 1018 10 16 0.00 0.00
3:15 am 03:15 Clear 75 23.9 72 22.2 90 90 ENE 3 6 30.05 1018 10 16 0.00 0.00
3:35 am 03:35 Clear 75 23.9 72 22.3 91 91 ENE 5 7 30.05 1018 10 16 0.00 0.00
3:55 am 03:55 Clear 74 23.6 72 22.2 92 92 NE 3 6 30.05 1018 10 16 0.00 0.00
4:15 am 04:15 Clear 75 23.7 72 22.2 91 91 ENE 5 7 30.05 1018 10 16 0.00 0.00
4:35 am 04:35 Clear 75 23.8 72 22.3 91 91 Calm 30.06 1018 10 16 0.00 0.00
4:55 am 04:55 Clear 75 23.8 72 22.3 91 91 NE 3 6 30.06 1018 10 16 0.00 0.00
5:15 am 05:15 Clear 75 23.8 72 22.3 91 91 Calm 30.06 1018 10 16 0.00 0.00
5:35 am 05:35 Clear 74 23.6 72 22.2 92 92 Calm 30.06 1018 10 16 0.00 0.00
6:00 am 06:00 Mostly Clear 73 23 72 22 94 94 Calm 30.07 1018 10 16 0.00 0.00
6:51 am 06:51 Mostly Sunny 73 23 72 22 94 94 Calm 30.08 1019 10 16 0.00 0.00
7:52 am 07:52 Mostly Sunny 77 25 73 23 89 89 ENE 6 9 30.09 1019 10 16 0.00 0.00
8:53 am 08:53 Mostly Sunny 82 28 75 24 79 79 Calm 30.10 1019 10 16 0.00 0.00
9:51 am 09:51 Mostly Sunny 84 29 75 24 74 74 Calm 30.10 1019 10 16 0.00 0.00
10:55 am 10:55 Partly Cloudy 86 30 75 24 70 70 Calm 30.09 1019 10 16 0.00 0.00
11:55 am 11:55 Mostly Cloudy 88 31 75 24 66 66 Calm 30.08 1019 10 16 0.00 0.00
12:48 pm 12:48 Mostly Cloudy 90 32 75 24 63 63 NW 6 9 30.06 1018 10 16 0.00 0.00
1:48 pm 13:48 Mostly Cloudy 91 33 73 23 56 56 Calm 30.04 1017 10 16 0.00 0.00
2:17 pm 14:17 Mostly Cloudy with Thunderstorms 81 27 73 23 79 79 E 20 31 30.06 1018 5 8 0.00 0.00
2:28 pm 14:28 Mostly Cloudy with Thunderstorms 79 26 73 23 84 84 ESE 16 26 30.06 1018 1 2 0.00 0.00
2:40 pm 14:40 Mostly Cloudy with Thunderstorms 75 24 73 23 94 94 SE 15 24 30.05 1018 3 5 0.00 0.00
2:58 pm 14:58 Mostly Cloudy with Thunderstorms 75 24 73 23 94 94 SSE 15 24 30.05 1018 5 8 0.00 0.00
3:55 pm 15:55 Partly Cloudy 75 24 73 23 94 94 S 7 11 30.05 1018 10 16 0.00 0.00
4:50 pm 16:50 Mostly Sunny 77 25 72 22 83 83 Calm 30.04 1017 10 16 0.00 0.00
5:55 pm 17:55 Partly Cloudy with Light Rain 75 24 73 23 94 94 Calm 30.03 1017 10 16 0.00 0.00
6:51 pm 18:51 Partly Cloudy with Light Rain 77 25 73 23 89 89 Calm 30.03 1017 10 16 0.00 0.00
7:57 pm 19:57 Mostly Sunny 77 25 73 23 89 89 Calm 30.02 1017 10 16 0.00 0.00
8:55 pm 20:55 Mostly Clear 75 24 73 23 94 94 Calm 30.04 1017 10 16 0.00 0.00
9:55 pm 21:55 Mostly Clear 75 24 72 22 89 89 Calm 30.05 1018 10 16 0.00 0.00
10:15 pm 22:15 Clear 75 23.9 72 22.4 91 91 Calm 30.05 1018 10 16 0.00 0.00
10:35 pm 22:35 Clear with Mist and Fog 75 23.9 72 22.3 91 91 Calm 30.07 1018 7 11 0.00 0.00
10:55 pm 22:55 Clear 75 23.9 72 22.4 91 91 Calm 30.07 1018 10 16 0.00 0.00
11:15 pm 23:15 Clear 75 23.7 72 22.3 92 92 NE 3 6 30.06 1018 7 11 0.00 0.00
11:35 pm 23:35 Clear 75 23.7 72 22.2 91 91 Calm 30.06 1018 10 16 0.00 0.00
11:55 pm 23:55 Clear 74 23.4 72 22.2 93 93 E 5 7 30.06 1018 10 16 0.00 0.00

Powered by AerisWeather